TimeCST,TemperatureF,Dew PointF,Humidity,Sea Level PressureIn,VisibilityMPH,Wind Direction,Wind SpeedMPH,Gust SpeedMPH,PrecipitationIn,Events,Conditions,WindDirDegrees,DateUTC
12:15 AM,35.6,26.6,70,30.33,10.0,NNE,3.5,-,N/A,,Clear,30,2013-12-18 06:15:00
12:35 AM,35.6,26.6,70,30.32,10.0,NNE,3.5,-,N/A,,Clear,30,2013-12-18 06:35:00
12:55 AM,32.0,28.4,87,30.32,10.0,Calm,Calm,-,N/A,,Clear,0,2013-12-18 06:55:00
1:15 AM,32.0,28.4,87,30.32,10.0,Calm,Calm,-,N/A,,Clear,0,2013-12-18 07:15:00
1:35 AM,32.0,28.4,87,30.32,10.0,Calm,Calm,-,N/A,,Clear,0,2013-12-18 07:35:00
1:55 AM,32.0,28.4,87,30.32,10.0,Calm,Calm,-,N/A,,Clear,0,2013-12-18 07:55:00
2:15 AM,32.0,28.4,87,30.32,10.0,Calm,Calm,-,N/A,,Clear,0,2013-12-18 08:15:00
2:35 AM,32.0,28.4,87,30.33,10.0,SW,3.5,-,N/A,,Clear,230,2013-12-18 08:35:00
2:55 AM,32.0,28.4,87,30.33,10.0,Calm,Calm,-,N/A,,Clear,0,2013-12-18 08:55:00
3:15 AM,32.0,28.4,87,30.32,10.0,Calm,Calm,-,N/A,,Clear,0,2013-12-18 09:15:00
3:35 AM,30.2,28.4,93,30.32,10.0,Calm,Calm,-,N/A,,Clear,0,2013-12-18 09:35:00
3:55 AM,32.0,30.2,93,30.33,10.0,Calm,Calm,-,N/A,,Clear,0,2013-12-18 09:55:00
4:15 AM,32.0,28.4,87,30.33,10.0,Calm,Calm,-,N/A,,Clear,0,2013-12-18 10:15:00
4:35 AM,32.0,30.2,93,30.32,10.0,Calm,Calm,-,N/A,,Clear,0,2013-12-18 10:35:00
4:55 AM,32.0,30.2,93,30.33,10.0,SSE,3.5,-,N/A,,Clear,150,2013-12-18 10:55:00
5:15 AM,32.0,30.2,93,30.33,10.0,SE,3.5,-,N/A,,Clear,140,2013-12-18 11:15:00
5:35 AM,32.0,30.2,93,30.33,10.0,Calm,Calm,-,N/A,,Clear,0,2013-12-18 11:35:00
5:55 AM,30.2,30.2,100,30.33,10.0,Calm,Calm,-,N/A,,Clear,0,2013-12-18 11:55:00
6:15 AM,30.2,28.4,93,30.33,10.0,Calm,Calm,-,N/A,,Clear,0,2013-12-18 12:15:00
6:35 AM,30.2,28.4,93,30.34,9.0,Calm,Calm,-,N/A,,Clear,0,2013-12-18 12:35:00
6:55 AM,28.4,28.4,100,30.33,9.0,Calm,Calm,-,N/A,,Clear,0,2013-12-18 12:55:00
7:15 AM,28.4,28.4,100,30.33,9.0,Calm,Calm,-,N/A,,Clear,0,2013-12-18 13:15:00
7:35 AM,28.4,28.4,100,30.33,8.0,Calm,Calm,-,N/A,,Clear,0,2013-12-18 13:35:00
7:55 AM,30.2,30.2,100,30.33,9.0,Calm,Calm,-,N/A,,Clear,0,2013-12-18 13:55:00
8:15 AM,32.0,32.0,100,30.33,8.0,Calm,Calm,-,N/A,,Clear,0,2013-12-18 14:15:00
8:35 AM,32.0,32.0,100,30.33,7.0,Calm,Calm,-,N/A,,Clear,0,2013-12-18 14:35:00
8:55 AM,33.8,32.0,93,30.33,6.0,Calm,Calm,-,N/A,,Clear,0,2013-12-18 14:55:00
9:15 AM,37.4,32.0,81,30.33,8.0,SSE,3.5,-,N/A,,Clear,160,2013-12-18 15:15:00
9:35 AM,39.2,33.8,81,30.33,8.0,South,4.6,-,N/A,,Clear,180,2013-12-18 15:35:00
9:55 AM,42.8,32.0,66,30.33,10.0,South,8.1,-,N/A,,Clear,170,2013-12-18 15:55:00
10:15 AM,44.6,32.0,61,30.32,10.0,South,8.1,-,N/A,,Clear,170,2013-12-18 16:15:00
10:35 AM,46.4,32.0,57,30.31,10.0,South,8.1,-,N/A,,Clear,170,2013-12-18 16:35:00
10:55 AM,48.2,32.0,54,30.30,7.0,South,13.8,-,N/A,,Clear,180,2013-12-18 16:55:00
11:15 AM,48.2,32.0,54,30.29,9.0,South,12.7,-,N/A,,Clear,170,2013-12-18 17:15:00
11:35 AM,48.2,32.0,54,30.27,10.0,South,16.1,-,N/A,,Clear,190,2013-12-18 17:35:00
11:55 AM,48.2,32.0,54,30.26,10.0,South,12.7,-,N/A,,Clear,180,2013-12-18 17:55:00
12:15 PM,50.0,33.8,54,30.25,10.0,South,12.7,-,N/A,,Clear,190,2013-12-18 18:15:00
12:35 PM,50.0,33.8,54,30.24,10.0,South,12.7,-,N/A,,Clear,190,2013-12-18 18:35:00
12:55 PM,51.8,33.8,50,30.22,10.0,South,11.5,-,N/A,,Clear,190,2013-12-18 18:55:00
1:15 PM,51.8,32.0,47,30.21,10.0,South,18.4,21.9,N/A,,Clear,190,2013-12-18 19:15:00
1:35 PM,51.8,32.0,47,30.19,10.0,South,16.1,-,N/A,,Clear,190,2013-12-18 19:35:00
1:55 PM,51.8,32.0,47,30.18,10.0,South,13.8,-,N/A,,Clear,170,2013-12-18 19:55:00
2:15 PM,51.8,33.8,50,30.17,10.0,South,13.8,-,N/A,,Clear,180,2013-12-18 20:15:00
2:35 PM,53.6,35.6,51,30.16,10.0,South,11.5,16.1,N/A,,Clear,180,2013-12-18 20:35:00
2:55 PM,53.6,37.4,54,30.16,10.0,South,9.2,-,N/A,,Unknown,190,2013-12-18 20:55:00
3:15 PM,53.6,37.4,54,30.15,7.0,South,11.5,-,N/A,,Clear,180,2013-12-18 21:15:00
3:35 PM,53.6,39.2,58,30.14,1.8,South,11.5,-,N/A,,Haze,190,2013-12-18 21:35:00
3:55 PM,53.6,37.4,54,30.14,1.2,South,12.7,-,N/A,,Haze,190,2013-12-18 21:55:00
4:15 PM,50.0,39.2,66,30.14,5.0,South,10.4,-,N/A,,Haze,180,2013-12-18 22:15:00
4:35 PM,50.0,39.2,66,30.13,8.0,South,10.4,-,N/A,,Clear,180,2013-12-18 22:35:00
4:55 PM,48.2,39.2,71,30.13,5.0,South,8.1,-,N/A,,Haze,170,2013-12-18 22:55:00
5:15 PM,48.2,39.2,71,30.12,10.0,SSE,9.2,-,N/A,,Clear,160,2013-12-18 23:15:00
5:35 PM,46.4,37.4,71,30.11,10.0,South,8.1,-,N/A,,Clear,170,2013-12-18 23:35:00
5:55 PM,46.4,37.4,71,30.11,10.0,South,9.2,-,N/A,,Clear,170,2013-12-18 23:55:00
6:15 PM,46.4,39.2,76,30.11,10.0,South,11.5,-,N/A,,Clear,170,2013-12-19 00:15:00
6:35 PM,46.4,39.2,76,30.10,10.0,South,11.5,-,N/A,,Clear,170,2013-12-19 00:35:00
6:55 PM,46.4,39.2,76,30.10,10.0,South,13.8,-,N/A,,Clear,180,2013-12-19 00:55:00
7:15 PM,48.2,39.2,71,30.09,10.0,South,13.8,-,N/A,,Clear,180,2013-12-19 01:15:00
7:35 PM,48.2,39.2,71,30.09,10.0,South,11.5,-,N/A,,Clear,180,2013-12-19 01:35:00
7:55 PM,46.4,39.2,76,30.09,10.0,South,11.5,-,N/A,,Clear,190,2013-12-19 01:55:00
8:15 PM,48.2,39.2,71,30.08,10.0,South,15.0,-,N/A,,Clear,180,2013-12-19 02:15:00
8:35 PM,48.2,39.2,71,30.07,10.0,South,16.1,-,N/A,,Clear,180,2013-12-19 02:35:00
8:55 PM,48.2,41.0,76,30.07,10.0,South,13.8,-,N/A,,Clear,180,2013-12-19 02:55:00
9:15 PM,46.4,41.0,81,30.07,10.0,South,11.5,-,N/A,,Clear,190,2013-12-19 03:15:00
9:35 PM,46.4,41.0,81,30.06,10.0,South,12.7,-,N/A,,Clear,190,2013-12-19 03:35:00
9:55 PM,48.2,41.0,76,30.06,10.0,South,12.7,-,N/A,,Clear,190,2013-12-19 03:55:00
10:15 PM,48.2,41.0,76,30.06,10.0,South,12.7,-,N/A,,Clear,190,2013-12-19 04:15:00
10:35 PM,48.2,41.0,76,30.06,10.0,SSW,15.0,20.7,N/A,,Clear,200,2013-12-19 04:35:00
10:55 PM,48.2,41.0,76,30.06,10.0,SSW,16.1,-,N/A,,Clear,200,2013-12-19 04:55:00
11:15 PM,48.2,41.0,76,30.06,10.0,SSW,16.1,-,N/A,,Clear,200,2013-12-19 05:15:00
11:35 PM,50.0,41.0,71,30.06,10.0,SSW,16.1,-,N/A,,Clear,210,2013-12-19 05:35:00
11:55 PM,50.0,41.0,71,30.06,9.0,SSW,16.1,21.9,N/A,,Clear,200,2013-12-19 05:55:00